Terminal Aerodrome Forecast
Issued by NWS

Home | Current Version | Previous Version | Text Only | Print | Product List | Glossary On
Versions: 1 2 3 4 5 6 7 8 9 10 11 12 13 14 15 16
000
FTPQ31 PGUM 242300
TAFPQ
TAF

PGSN 242329Z 2500/2524 09011KT P6SM VCSH SCT018 SCT050 BKN120=

USA.gov is the U.S. government's official web portal to all federal, state and local government web resources and services.